GW5272 Weather Reports


time (UTC)temp
C
wind
direction
speed
KPH
gust
KPH
rain 1hr
cm
rain 24hr
cm
rain mn
cm
humidity
%
barometer
mb
20260504202308 20 274 9.7 16.1 0.00 0.00 0.00 43 1013.1
20260504201804 20 299 6.4 16.1 0.00 0.00 0.00 44 1013.2
20260504201302 20 280 4.8 20.9 0.00 0.00 0.00 43 1013.1
20260504200759 20 334 4.8 6.4 0.00 0.00 0.00 43 1013.0
20260504200255 20 205 3.2 4.8 0.00 0.00 0.00 43 1013.1
20260504195751 20 275 9.7 14.5 0.00 0.00 0.00 43 1012.9
20260504195247 20 237 1.6 4.8 0.00 0.00 0.00 44 1012.9
20260504194744 20 197 4.8 9.7 0.00 0.00 0.00 43 1012.7
20260504194241 21 248 6.4 17.7 0.00 0.00 0.00 44 1012.8
20260504193737 21 214 6.4 24.1 0.00 0.00 0.00 43 1012.9
20260504193234 21 165 3.2 14.5 0.00 0.00 0.00 41 1013.0
20260504192733 21 207 9.7 11.3 0.00 0.00 0.00 41 1012.9
20260504192230 21 167 6.4 17.7 0.00 0.00 0.00 42 1013.1
20260504191729 21 170 9.7 17.7 0.00 0.00 0.00 43 1013.2
20260504191226 21 162 14.5 22.5 0.00 0.00 0.00 42 1013.1
20260504190721 21 130 4.8 11.3 0.00 0.00 0.00 46 1013.1
20260504190218 20 300 6.4 12.9 0.00 0.00 0.00 47 1013.5
20260504185714 21 294 9.7 20.9 0.00 0.00 0.00 44 1013.6
20260504185211 21 201 6.4 14.5 0.00 0.00 0.00 48 1013.4
20260504184707 20 261 8.0 11.3 0.00 0.00 0.00 45 1013.6
20260504184202 21 174 6.4 11.3 0.00 0.00 0.00 45 1014.1
20260504183659 20 282 16.1 17.7 0.00 0.00 0.00 45 1014.0
20260504183156 20 270 14.5 22.5 0.00 0.00 0.00 45 1014.0
20260504182654 20 261 6.4 11.3 0.00 0.00 0.00 47 1014.0
20260504182151 20 261 16.1 20.9 0.00 0.00 0.00 45 1014.2
20260504181649 20 172 3.2 4.8 0.00 0.00 0.00 49 1014.3
20260504181146 20 138 11.3 14.5 0.00 0.00 0.00 47 1014.3
20260504180645 20 287 9.7 16.1 0.00 0.00 0.00 50 1014.3
20260504180143 19 161 4.8 12.9 0.00 0.00 0.00 49 1014.3
20260504175640 19 246 6.4 11.3 0.00 0.00 0.00 53 1014.3
20260504175137 20 272 4.8 11.3 0.00 0.00 0.00 51 1014.2
20260504174635 19 239 6.4 9.7 0.00 0.00 0.00 50 1014.4
20260504174131 18 153 4.8 12.9 0.00 0.00 0.00 53 1014.4
20260504173629 18 184 9.7 22.5 0.00 0.00 0.00 53 1014.7
20260504173126 18 230 6.4 12.9 0.00 0.00 0.00 51 1014.7
20260504172622 18 220 6.4 14.5 0.00 0.00 0.00 55 1014.7
20260504172119 18 215 6.4 9.7 0.00 0.00 0.00 51 1014.8
20260504171615 18 295 8.0 16.1 0.00 0.00 0.00 52 1014.7
20260504171113 18 259 6.4 12.9 0.00 0.00 0.00 55 1015.2
20260504170608 18 155 3.2 11.3 0.00 0.00 0.00 52 1015.0
20260504170107 18 256 4.8 14.5 0.00 0.00 0.00 52 1015.1
20260504150952 17 294 11.3 16.1 0.00 0.00 0.00 47 1016.3
20260504150449 17 282 14.5 20.9 0.00 0.00 0.00 46 1016.3
20260504140915 15 267 11.3 17.7 0.00 0.00 0.00 47 1016.1
20260504140411 16 248 17.7 24.1 0.00 0.00 0.00 48 1016.1
20260504130336 13 266 4.8 4.8 0.00 0.00 0.00 54 1016.2
20260504120300 9 144 3.2 4.8 0.00 0.00 0.00 73 1016.7
20260504110224 5 232 0.0 0.0 0.00 0.00 0.00 89 1016.9
20260504100148 6 262 0.0 0.0 0.00 0.00 0.00 83 1017.1
20260504090110 8 215 0.0 1.6 0.00 0.00 0.00 75 1017.0
20260504081540 8 267 0.0 6.4 0.00 0.00 0.00 73 1017.1
20260504081036 8 278 6.4 6.4 0.00 0.00 0.00 69 1017.4
20260504080533 8 278 6.4 6.4 0.00 0.00 0.00 69 1017.4
20260504050346 6 250 0.0 0.0 0.00 0.00 0.00 73 1017.9
20260504045838 6 248 0.0 0.0 0.00 0.00 0.00 70 1017.9
20260504045338 7 246 0.0 0.0 0.00 0.00 0.00 67 1017.9
20260504044835 7 234 0.0 0.0 0.00 0.00 0.00 65 1017.6
20260504044332 7 231 0.0 0.0 0.00 0.00 0.00 64 1017.8
20260504043830 7 250 0.0 0.0 0.00 0.00 0.00 66 1017.8
20260504043326 6 224 0.0 0.0 0.00 0.00 0.00 67 1017.7
20260504042824 6 237 0.0 0.0 0.00 0.00 0.00 71 1017.8
20260504042320 6 236 0.0 0.0 0.00 0.00 0.00 73 1017.7
20260504041816 6 224 0.0 0.0 0.00 0.00 0.00 77 1017.7
20260504041312 6 224 0.0 0.0 0.00 0.00 0.00 80 1017.8
20260504040809 6 213 0.0 0.0 0.00 0.00 0.00 81 1017.8
20260504040306 6 214 0.0 0.0 0.00 0.00 0.00 76 1017.8
20260504035802 6 217 0.0 0.0 0.00 0.00 0.00 75 1017.9
20260504035259 6 217 0.0 0.0 0.00 0.00 0.00 75 1017.8
20260504034756 6 218 0.0 0.0 0.00 0.00 0.00 78 1017.8
20260504034254 6 217 0.0 0.0 0.00 0.00 0.00 75 1017.8
20260504033751 6 217 0.0 0.0 0.00 0.00 0.00 76 1017.9
20260504033249 6 218 0.0 0.0 0.00 0.00 0.00 76 1017.7
20260504032745 6 218 0.0 0.0 0.00 0.00 0.00 79 1017.8
20260504032242 6 224 0.0 0.0 0.00 0.00 0.00 76 1017.7
20260504031739 6 224 0.0 0.0 0.00 0.00 0.00 76 1018.0
20260504031237 6 224 0.0 0.0 0.00 0.00 0.00 72 1018.0
20260504030732 6 224 0.0 0.0 0.00 0.00 0.00 70 1017.8
20260504030230 6 224 0.0 0.0 0.00 0.00 0.00 71 1017.9
20260504025726 6 224 0.0 0.0 0.00 0.00 0.00 70 1017.8
20260504025223 7 224 0.0 0.0 0.00 0.00 0.00 71 1017.8
20260504024720 7 224 0.0 0.0 0.00 0.00 0.00 69 1018.0
20260504024217 7 224 0.0 0.0 0.00 0.00 0.00 67 1017.9
20260504023714 7 224 0.0 0.0 0.00 0.00 0.00 65 1017.8
20260504023209 7 224 0.0 0.0 0.00 0.00 0.00 66 1018.0
20260504022706 7 224 0.0 0.0 0.00 0.00 0.00 65 1018.0
20260504022202 7 241 0.0 0.0 0.00 0.00 0.00 64 1018.1
20260504021700 7 241 0.0 0.0 0.00 0.00 0.00 63 1018.1
20260504021156 7 243 0.0 0.0 0.00 0.00 0.00 64 1018.0
20260504020653 7 249 0.0 0.0 0.00 0.00 0.00 65 1018.1
20260504020149 7 249 0.0 0.0 0.00 0.00 0.00 65 1018.1
20260504015646 7 254 0.0 0.0 0.00 0.00 0.00 64 1018.0
20260504015142 7 253 0.0 0.0 0.00 0.00 0.00 62 1017.9
20260504014638 7 236 0.0 0.0 0.00 0.00 0.00 66 1018.0
20260504014136 7 235 0.0 0.0 0.00 0.00 0.00 63 1018.0
20260504013633 7 245 0.0 0.0 0.00 0.00 0.00 65 1017.9
20260504013130 7 245 0.0 0.0 0.00 0.00 0.00 62 1018.1
20260504012627 7 235 0.0 0.0 0.00 0.00 0.00 63 1017.8
20260504012125 7 239 0.0 0.0 0.00 0.00 0.00 61 1018.0
20260504011621 7 232 0.0 0.0 0.00 0.00 0.00 61 1017.6
20260504011118 7 206 0.0 0.0 0.00 0.00 0.00 61 1017.6
20260504010614 8 214 0.0 0.0 0.00 0.00 0.00 60 1017.6
20260504010110 7 265 0.0 0.0 0.00 0.00 0.00 58 1017.7
20260504005607 7 242 0.0 0.0 0.00 0.00 0.00 60 1017.5
20260504005104 7 256 0.0 0.0 0.00 0.00 0.00 61 1017.4
20260504004602 7 259 0.0 0.0 0.00 0.00 0.00 59 1017.5
20260504004059 7 256 0.0 0.0 0.00 0.00 0.00 58 1017.4
20260504003555 7 261 0.0 0.0 0.00 0.00 0.00 58 1017.3
20260504003052 7 262 0.0 0.0 0.00 0.00 0.00 60 1017.3
20260504002548 8 262 0.0 0.0 0.00 0.00 0.00 58 1017.1
20260504002046 8 256 0.0 0.0 0.00 0.00 0.00 56 1017.4
20260504001544 8 231 0.0 0.0 0.00 0.00 0.00 54 1017.4
20260504001039 8 261 0.0 0.0 0.00 0.00 0.00 58 1017.3
20260504000537 8 242 0.0 0.0 0.00 0.00 0.00 53 1017.0
20260504000034 9 264 1.6 1.6 0.00 0.00 0.00 53 1017.3
20260503235533 9 293 3.2 3.2 0.00 0.00 0.00 50 1017.4
20260503235029 10 273 3.2 4.8 0.00 0.00 0.00 53 1017.1
20260503234526 10 319 3.2 3.2 0.00 0.00 0.00 47 1017.3
20260503234025 10 277 1.6 3.2 0.00 0.00 0.00 45 1017.5
20260503233521 10 310 3.2 3.2 0.00 0.00 0.00 46 1017.1
20260503233017 11 226 0.0 3.2 0.00 0.00 0.00 39 1017.3
20260503232514 11 253 4.8 9.7 0.00 0.00 0.00 36 1017.6
20260503232012 11 7 0.0 1.6 0.00 0.00 0.00 36 1017.4
20260503231509 11 259 3.2 6.4 0.00 0.00 0.00 36 1017.3
20260503231006 11 292 6.4 9.7 0.00 0.00 0.00 36 1017.3
20260503230503 12 266 1.6 1.6 0.00 0.00 0.00 36 1017.3
20260503230000 12 280 4.8 6.4 0.00 0.00 0.00 37 1017.1
20260503225456 12 234 4.8 6.4 0.00 0.00 0.00 35 1017.4
20260503224952 12 289 3.2 4.8 0.00 0.00 0.00 37 1017.5
20260503224449 13 260 3.2 3.2 0.00 0.00 0.00 35 1017.5
20260503223947 13 328 3.2 6.4 0.00 0.00 0.00 34 1017.5
20260503223445 13 296 0.0 3.2 0.00 0.00 0.00 36 1017.4
20260503222940 13 279 4.8 6.4 0.00 0.00 0.00 33 1017.4
20260503222439 13 98 1.6 4.8 0.00 0.00 0.00 32 1017.4
20260503221937 13 307 4.8 14.5 0.00 0.00 0.00 32 1017.3
20260503221434 13 264 1.6 4.8 0.00 0.00 0.00 33 1017.4
20260503220931 13 132 0.0 1.6 0.00 0.00 0.00 32 1017.1
20260503220427 13 44 1.6 6.4 0.00 0.00 0.00 32 1017.3
20260503215925 13 248 6.4 12.9 0.00 0.00 0.00 35 1017.3
20260503215421 13 199 4.8 9.7 0.00 0.00 0.00 35 1017.1
20260503214919 13 192 8.0 12.9 0.00 0.00 0.00 32 1017.1
20260503214416 13 172 1.6 12.9 0.00 0.00 0.00 36 1017.0
20260503213914 12 313 6.4 11.3 0.00 0.00 0.00 34 1017.1
20260503213412 12 317 4.8 9.7 0.00 0.00 0.00 35 1017.1
20260503212908 13 31 9.7 17.7 0.00 0.00 0.00 33 1017.1
20260503212406 13 297 6.4 11.3 0.00 0.00 0.00 35 1017.3
20260503211903 14 181 6.4 6.4 0.00 0.00 0.00 35 1017.4
20260503211359 13 273 3.2 6.4 0.00 0.00 0.00 35 1017.6
20260503210854 13 212 4.8 6.4 0.00 0.00 0.00 33 1017.3
20260503210352 13 264 0.0 4.8 0.00 0.00 0.00 37 1017.4
20260503205847 12 62 4.8 6.4 0.00 0.00 0.00 33 1017.5
20260503205344 13 315 8.0 20.9 0.00 0.00 0.00 33 1017.5
20260503204840 13 243 0.0 6.4 0.00 0.00 0.00 36 1017.7
20260503204338 12 275 3.2 11.3 0.00 0.00 0.00 35 1017.6
20260503203835 13 280 6.4 9.7 0.00 0.00 0.00 33 1017.7
20260503203332 13 340 9.7 11.3 0.00 0.00 0.00 35 1017.8
20260503202829 13 259 6.4 12.9 0.00 0.00 0.00 34 1017.9